RADUGA-1M 3

Last updated on Sun Apr 12 2026 00:02:53 GMT+0000 (Coordinated Universal Time)

1 39375U 13062A 26101.17266953 .00000159 00000+0 00000+0 0 9991 2 39375 5.7889 73.1897 0000566 277.5078 305.8805 1.00271131 45435
UTC large
Height (km)
Speed (km/s)
/
Latitude / Longitude
Inclination (degrees)
Orbital Period (minutes)
Azimuth
Elevation
Range (km)
Doppler Factor

Next 0 passes for location: London (51.5072 / 0.1276)

Sorry there are no passes over London.
RADUGA-1M 3